Starlink 5067

operational
NORAD ID: 55653 Int'l Des: 2023-021 Owner: SPXS Country: US Constellation: starlink
LEOCIRCULAR

About Starlink 5067

Description loading...

Live Position

Loading 3D Globe...

Upcoming Passes

Altitude History

Altitude vs Time

uPlot chart will show altitude changes over time

Two-Line Element Set

1 55653U 23021AB 25353.23145095 -.00003017 00000-0 -24519-3 0 9996
2 55653 70.0008 27.1523 0003544 273.4975 86.5779 14.98325867156742
Epoch: Dec 19, 2025 • Age: 14 hours

Current Status

Altitude 586.2 km
Velocity 7.57 km/s
Sub-Earth Point -42.73°S, 154.08°W
Launch Date Feb 17, 2023
Age 2.8 years
Type internet

Technical Details

Classification Payload
Mass 305.00 kg
Dry Mass 290.00 kg
Total Mass 305.00 kg
Length 0.20 m
Diameter 2.80 m
Span 9.00 m
Shape Box + pan
Manufacturer SPXS
Bus Type Starlink
Phase Status In Orbit
Owner/State SPXS/US

Large Constellations

Loading constellations...